TimeAKST,TemperatureF,Dew PointF,Humidity,Sea Level PressureIn,VisibilityMPH,Wind Direction,Wind SpeedMPH,Gust SpeedMPH,PrecipitationIn,Events,Conditions,WindDirDegrees,DateUTC
12:53 AM,-6.0,-15.0,65,29.56,10.0,Variable,5.8,-,N/A,,Clear,0,2013-02-22 09:53:00
1:53 AM,-7.1,-16.1,65,29.59,10.0,North,4.6,-,N/A,,Clear,360,2013-02-22 10:53:00
3:53 AM,-9.0,-17.0,68,29.60,10.0,Calm,Calm,-,N/A,,Clear,0,2013-02-22 12:53:00
4:53 AM,-13.0,-20.0,71,29.61,10.0,Calm,Calm,-,N/A,,Clear,0,2013-02-22 13:53:00
5:53 AM,-16.1,-20.9,79,29.62,10.0,Calm,Calm,-,N/A,,Clear,0,2013-02-22 14:53:00
6:53 AM,-17.0,-22.0,78,29.62,10.0,Calm,Calm,-,N/A,,Partly Cloudy,0,2013-02-22 15:53:00
7:53 AM,-14.8,-20.2,77,29.62,10.0,North,3.5,-,N/A,,Partly Cloudy,10,2013-02-22 16:53:00
8:53 AM,-15.0,-20.0,78,29.62,10.0,Calm,Calm,-,N/A,,Partly Cloudy,0,2013-02-22 17:53:00
9:53 AM,-18.9,-23.1,81,29.60,10.0,Calm,Calm,-,N/A,,Partly Cloudy,0,2013-02-22 18:53:00
10:53 AM,-13.0,-20.0,71,29.61,10.0,Calm,Calm,-,N/A,,Partly Cloudy,0,2013-02-22 19:53:00
11:53 AM,-9.0,-16.1,71,29.60,10.0,Calm,Calm,-,N/A,,Partly Cloudy,0,2013-02-22 20:53:00
12:53 PM,-7.1,-13.0,75,29.61,10.0,Calm,Calm,-,N/A,,Scattered Clouds,0,2013-02-22 21:53:00
1:53 PM,-0.9,-13.0,57,29.61,10.0,Calm,Calm,-,N/A,,Clear,0,2013-02-22 22:53:00
2:53 PM,-2.0,-11.0,66,29.60,10.0,Calm,Calm,-,N/A,,Clear,0,2013-02-22 23:53:00
3:53 PM,-4.0,-13.0,65,29.58,10.0,ENE,3.5,-,N/A,,Partly Cloudy,60,2013-02-23 00:53:00
4:53 PM,-2.0,-13.0,60,29.58,10.0,ENE,8.1,-,N/A,,Scattered Clouds,70,2013-02-23 01:53:00
5:53 PM,-2.9,-13.0,62,29.54,10.0,NNE,3.5,-,N/A,,Scattered Clouds,20,2013-02-23 02:53:00
6:53 PM,-9.0,-16.1,71,29.53,10.0,North,3.5,-,N/A,,Scattered Clouds,360,2013-02-23 03:53:00
7:53 PM,-9.9,-18.0,68,29.53,10.0,North,5.8,-,N/A,,Scattered Clouds,360,2013-02-23 04:53:00
8:53 PM,-11.0,-18.0,71,29.52,10.0,North,4.6,-,N/A,,Mostly Cloudy,10,2013-02-23 05:53:00
9:53 PM,-9.9,-17.0,71,29.50,10.0,Calm,Calm,-,N/A,,Mostly Cloudy,0,2013-02-23 06:53:00
10:53 PM,-13.0,-20.0,71,29.49,10.0,North,4.6,-,N/A,,Scattered Clouds,10,2013-02-23 07:53:00
11:53 PM,-11.0,-18.9,68,29.48,10.0,North,5.8,-,N/A,,Scattered Clouds,350,2013-02-23 08:53:00